Latest Weather Observations for Narrandera Airport

IDN60801

Issued at 6:35 pm EST Sunday 20 April 2014 (issued every 30 minutes, with the page automatically refreshed every 10 minutes)

About weather observations | Map of weather stations | Latest weather observations for NSW | Other Formats
Station Details ID: 074148 Name: NARRANDERA AIRPORT Lat: -34.70 Lon: 146.51 Height: 145.0 m
Data from the previous 72 hours. | See also: Recent months for locations in New South Wales
Date/Time
EST
Temp
°C
App
Temp
°C
Dew
Point
Rel
Hum
%
Delta-T
°C
Wind Press
QNH
hPa
Press
MSL
hPa
Rain
since 9 am
mm
Dir
 
Spd
km/h
Gust
km/h
Spd
kts
Gust
kts
20/06:30pm 10.4 9.1 4.1 65 2.8 S 0 0 0 0 1019.9 - 0.0
20/06:00pm 12.5 10.8 4.2 57 3.8 S 2 7 1 4 1019.4 1019.1 0.0
20/05:30pm 14.7 12.8 4.7 51 4.7 S 4 9 2 5 1019.2 - 0.0
20/05:00pm 15.3 13.0 5.5 52 4.7 SSW 7 9 4 5 1019.0 1018.7 0.0
20/04:30pm 15.9 12.7 4.9 48 5.2 SSW 11 15 6 8 1018.9 - 0.0
20/04:00pm 16.2 12.2 4.9 47 5.4 SSW 15 20 8 11 1018.7 1018.4 0.0
20/03:30pm 16.4 12.6 4.1 44 5.8 SW 13 19 7 10 1018.7 - 0.0
20/03:00pm 16.6 12.2 4.9 46 5.6 SW 17 22 9 12 1018.6 1018.3 0.0
20/02:30pm 16.9 13.4 5.5 47 5.5 SW 13 22 7 12 1018.5 - 0.0
20/02:00pm 16.6 13.1 5.3 47 5.4 SW 13 20 7 11 1018.6 1018.3 0.0
20/01:30pm 16.3 11.8 4.4 45 5.6 SW 17 24 9 13 1018.8 - 0.0
20/01:00pm 16.2 12.6 4.9 47 5.4 WSW 13 17 7 9 1018.8 1018.5 0.0
20/12:30pm 16.2 13.0 4.9 47 5.4 SW 11 15 6 8 1019.2 - 0.0
20/12:00pm 15.9 12.2 4.6 47 5.3 W 13 17 7 9 1019.6 1019.3 0.0
20/11:30am 15.9 12.4 5.5 50 5.0 SW 13 20 7 11 1020.0 - 0.0
20/11:00am 16.0 13.0 5.9 51 4.9 W 11 17 6 9 1020.4 1020.1 0.0
20/10:30am 15.5 12.9 6.0 53 4.6 WNW 9 17 5 9 1020.5 - 0.0
20/10:00am 14.8 12.7 5.9 55 4.3 NW 6 13 3 7 1020.6 1020.3 0.0
20/09:30am 13.7 12.6 7.0 64 3.3 NNW 2 7 1 4 1020.6 - 0.0
20/09:00am 11.8 10.9 7.7 76 2.0 NW 2 7 1 4 1020.7 1020.4 0.0
20/08:30am 9.9 9.1 6.6 80 1.6 CALM 0 0 0 0 1020.4 - 0.0
20/08:00am 7.5 6.6 6.0 90 0.7 SW 0 4 0 2 1020.1 1019.8 0.0
20/07:30am 4.5 3.2 3.9 96 0.3 CALM 0 0 0 0 1019.9 - 0.0
20/07:00am 3.1 1.5 2.4 95 0.3 CALM 0 0 0 0 1019.7 1019.4 0.0
20/06:30am 3.0 1.3 2.1 94 0.4 CALM 0 0 0 0 1019.4 - 0.0
20/06:00am 3.0 1.3 2.1 94 0.4 WSW 0 0 0 0 1019.1 1018.8 0.0
20/05:30am 3.3 1.7 2.4 94 0.4 CALM 0 0 0 0 1018.7 - 0.0
20/05:00am 3.5 1.9 2.6 94 0.4 CALM 0 0 0 0 1018.5 1018.2 0.0
20/04:30am 3.6 2.0 2.6 93 0.4 CALM 0 0 0 0 1018.3 - 0.0
20/04:00am 3.8 2.3 2.8 93 0.4 CALM 0 0 0 0 1018.3 1018.0 0.0
20/03:30am 4.0 2.5 3.0 93 0.4 CALM 0 0 0 0 1018.1 - 0.0
20/03:00am 3.9 2.3 2.7 92 0.5 CALM 0 0 0 0 1018.1 1017.8 0.0
20/02:30am 4.1 2.6 2.9 92 0.5 CALM 0 0 0 0 1018.2 - 0.0
20/02:00am 4.7 3.3 3.7 93 0.4 CALM 0 0 0 0 1018.4 1018.1 0.0
20/01:30am 4.8 3.4 3.6 92 0.5 CALM 0 0 0 0 1018.4 - 0.0
20/01:00am 5.2 3.9 4.0 92 0.5 CALM 0 0 0 0 1018.6 1018.3 0.0
20/12:30am 5.3 3.9 3.8 90 0.6 CALM 0 0 0 0 1018.6 - 0.0
20/12:00am 6.0 4.8 4.5 90 0.6 N 0 0 0 0 1018.6 1018.3 0.0
 
Date/Time
EST
Temp
°C
App
Temp
°C
Dew
Point
Rel
Hum
%
Delta-T
°C
Wind Press
QNH
hPa
Press
MSL
hPa
Rain
since 9 am
mm
Dir
 
Spd
km/h
Gust
km/h
Spd
kts
Gust
kts
19/11:30pm 6.1 4.8 4.3 88 0.8 CALM 0 0 0 0 1018.5 - 0.0
19/11:00pm 6.3 5.0 4.1 86 0.9 CALM 0 0 0 0 1018.6 1018.3 0.0
19/10:30pm 7.0 5.8 4.8 86 1.0 CALM 0 0 0 0 1018.9 - 0.0
19/10:00pm 7.3 6.1 4.6 83 1.2 CALM 0 0 0 0 1018.9 1018.6 0.0
19/09:30pm 7.7 6.5 4.8 82 1.3 CALM 0 0 0 0 1019.1 - 0.0
19/09:00pm 8.8 7.8 5.5 80 1.5 CALM 0 0 0 0 1019.0 1018.7 0.0
19/08:30pm 9.5 8.5 5.5 76 1.8 CALM 0 0 0 0 1019.1 - 0.0
19/08:00pm 10.0 8.9 5.0 71 2.3 CALM 0 0 0 0 1018.9 1018.6 0.0
19/07:30pm 10.8 8.5 4.9 67 2.7 WSW 6 9 3 5 1018.7 - 0.0
19/07:00pm 12.3 9.9 5.2 62 3.3 SW 7 11 4 6 1018.4 1018.1 0.0
19/06:30pm 13.3 10.6 5.5 59 3.7 SW 9 15 5 8 1018.3 - 0.0
19/06:00pm 13.3 10.1 5.0 57 3.9 SW 11 15 6 8 1018.1 1017.8 0.0
19/05:30pm 15.2 10.9 5.1 51 4.8 SW 17 20 9 11 1017.9 - 0.0
19/05:00pm 16.4 12.1 5.1 47 5.4 SW 17 22 9 12 1017.8 1017.5 0.0
19/04:30pm 17.0 12.7 5.3 46 5.7 SW 17 24 9 13 1017.6 - 0.0
19/04:00pm 17.7 14.5 5.3 44 6.0 WSW 11 19 6 10 1017.7 1017.4 0.0
19/03:30pm 17.4 12.7 5.0 44 6.0 SW 19 24 10 13 1017.8 - 0.0
19/03:00pm 17.3 12.9 4.6 43 6.1 SW 17 22 9 12 1017.7 1017.4 0.0
19/02:30pm 17.4 13.0 4.7 43 6.1 SW 17 28 9 15 1017.9 - 0.0
19/02:00pm 17.6 13.5 6.2 47 5.6 W 17 24 9 13 1018.2 1017.9 0.0
19/01:30pm 16.8 12.2 5.4 47 5.5 SW 19 30 10 16 1018.3 - 0.0
19/01:00pm 16.1 11.8 5.1 48 5.2 SW 17 24 9 13 1018.7 1018.4 0.0
19/12:30pm 16.2 12.6 6.9 54 4.6 SW 15 24 8 13 1019.2 - 0.0
19/12:00pm 15.5 11.1 6.5 55 4.4 WSW 19 26 10 14 1019.7 1019.4 0.0
19/11:30am 15.3 11.4 7.1 58 4.1 WSW 17 26 9 14 1020.0 - 0.0
19/11:00am 14.7 11.7 7.5 62 3.6 WSW 13 20 7 11 1020.4 1020.1 0.0
19/10:30am 14.0 11.1 8.0 67 3.0 SW 13 17 7 9 1020.7 - 0.0
19/10:00am 12.9 9.9 7.8 71 2.5 SW 13 20 7 11 1020.8 1020.5 0.0
19/09:30am 11.6 7.7 7.1 74 2.2 SW 17 22 9 12 1020.8 - 0.0
19/09:00am 10.8 7.7 7.3 79 1.7 SW 13 19 7 10 1020.5 1020.2 0.0
19/08:30am 9.6 6.7 6.3 80 1.5 SW 11 17 6 9 1020.4 - 0.0
19/08:00am 8.7 6.1 6.0 83 1.2 SW 9 13 5 7 1020.1 1019.8 0.0
19/07:30am 7.5 5.8 5.8 89 0.8 WNW 4 9 2 5 1019.8 - 0.0
19/07:00am 5.9 3.5 4.4 90 0.6 W 6 7 3 4 1019.3 1019.0 0.0
19/06:30am 6.1 4.8 4.3 88 0.8 CALM 0 0 0 0 1019.1 - 0.0
19/06:00am 6.6 5.4 4.6 87 0.9 CALM 0 6 0 3 1019.0 1018.7 0.0
19/05:30am 6.7 5.1 4.5 86 1.0 SSW 2 9 1 5 1018.8 - 0.0
19/05:00am 7.0 5.0 4.3 83 1.2 SSW 4 9 2 5 1018.6 1018.3 0.0
19/04:30am 8.3 5.2 5.4 82 1.3 WSW 11 15 6 8 1018.9 - 0.0
19/04:00am 8.6 6.3 5.9 83 1.2 WSW 7 13 4 7 1018.7 1018.4 0.0
19/03:30am 9.0 6.3 5.7 80 1.5 WSW 9 17 5 9 1018.6 - 0.0
19/03:00am 9.4 6.4 5.8 78 1.7 WSW 11 19 6 10 1018.5 1018.2 0.0
19/02:30am 9.6 6.2 5.8 77 1.8 SW 13 17 7 9 1018.5 - 0.0
19/02:00am 10.1 7.1 5.9 75 1.9 WSW 11 15 6 8 1018.7 1018.4 0.0
19/01:30am 10.4 7.4 6.2 75 2.0 WSW 11 17 6 9 1018.6 - 0.0
19/01:00am 10.6 7.3 6.2 74 2.1 SW 13 20 7 11 1018.8 1018.5 0.0
19/12:30am 10.8 7.1 6.2 73 2.2 SSW 15 20 8 11 1018.7 - 0.0
19/12:00am 11.4 7.4 6.5 72 2.3 SSW 17 20 9 11 1018.7 1018.4 0.0
 
Date/Time
EST
Temp
°C
App
Temp
°C
Dew
Point
Rel
Hum
%
Delta-T
°C
Wind Press
QNH
hPa
Press
MSL
hPa
Rain
since 9 am
mm
Dir
 
Spd
km/h
Gust
km/h
Spd
kts
Gust
kts
18/11:30pm 12.1 8.2 7.0 71 2.5 SSW 17 20 9 11 1018.7 - 0.0
18/11:00pm 12.5 8.2 7.0 69 2.7 SSW 19 24 10 13 1018.7 1018.4 0.0
18/10:30pm 13.0 9.2 7.5 69 2.7 SSW 17 24 9 13 1018.9 - 0.0
18/10:00pm 14.2 9.5 7.9 66 3.1 SSW 22 32 12 17 1018.8 1018.5 0.0
18/09:30pm 14.9 11.0 9.3 69 2.9 SSW 20 30 11 16 1018.8 - 0.0
18/09:00pm 15.7 11.8 9.4 66 3.3 SSW 20 32 11 17 1018.3 1018.0 0.0
18/08:30pm 16.0 12.0 10.3 69 3.0 SSW 22 30 12 16 1018.0 - 0.0
18/08:00pm 17.2 12.7 11.5 69 3.1 SSW 26 35 14 19 1017.6 1017.3 0.0
18/07:30pm 18.4 15.0 10.7 61 4.2 SW 19 32 10 17 1017.0 - 0.0
18/07:00pm 18.7 17.1 10.3 58 4.5 SW 9 19 5 10 1016.6 1016.3 0.0
18/06:30pm 18.8 16.8 10.1 57 4.7 WSW 11 15 6 8 1016.2 - 0.0
18/06:00pm 19.0 17.3 9.8 55 4.9 WSW 9 13 5 7 1015.9 1015.6 0.0
18/05:30pm 19.7 17.3 9.9 53 5.3 WSW 13 19 7 10 1015.8 - 0.0
18/05:00pm 21.3 18.4 9.5 47 6.4 WSW 15 24 8 13 1015.5 1015.2 0.0
18/04:30pm 21.8 19.2 10.6 49 6.2 W 15 20 8 11 1015.3 - 0.0
18/04:00pm 21.5 17.9 10.0 48 6.3 WSW 19 28 10 15 1015.2 1014.9 0.0
18/03:30pm 21.8 18.1 10.0 47 6.4 W 20 30 11 16 1015.2 - 0.0
18/03:00pm 21.9 19.1 10.1 47 6.4 W 15 20 8 11 1015.5 1015.2 0.0
18/02:30pm 21.8 18.6 10.0 47 6.4 WSW 17 22 9 12 1015.6 - 0.0
18/02:00pm 22.3 19.3 9.1 43 7.1 WSW 15 28 8 15 1015.6 1015.3 0.0
18/01:30pm 22.1 18.9 8.6 42 7.2 WSW 15 20 8 11 1015.8 - 0.0
18/01:17pm 23.0 17.3 8.3 39 7.8 W 28 46 15 25 1015.8 - 0.0
18/01:00pm 22.3 18.9 9.1 43 7.1 WSW 17 33 9 18 1016.1 1015.8 0.0
18/12:30pm 21.6 17.9 9.5 46 6.5 WSW 19 32 10 17 1016.5 - 0.0
18/12:00pm 22.0 18.9 10.2 47 6.5 W 17 26 9 14 1016.9 1016.6 0.0
18/11:30am 21.4 17.9 10.3 49 6.1 W 19 28 10 15 1017.5 - 0.0
18/11:00am 21.1 18.6 11.2 53 5.5 W 15 20 8 11 1017.8 1017.5 0.0
18/10:30am 20.1 17.3 11.3 57 4.9 NW 17 22 9 12 1018.0 - 0.0
18/10:00am 19.0 15.6 11.3 61 4.2 NW 20 26 11 14 1018.3 1018.0 0.0
18/09:30am 18.0 15.2 11.3 65 3.7 NW 17 22 9 12 1018.6 - 0.0
18/09:00am 16.3 13.3 10.8 70 2.9 NW 17 22 9 12 1018.8 1018.5 0.0
18/08:30am 15.0 15.3 12.1 83 1.6 NNW 2 7 1 4 1018.8 - 0.0
18/08:00am 11.9 12.3 11.3 96 0.3 CALM 0 0 0 0 1018.6 1018.3 0.0
18/07:30am 8.7 8.2 7.9 95 0.4 CALM 0 0 0 0 1018.4 - 0.0
18/07:00am 8.3 7.7 7.5 95 0.4 CALM 0 0 0 0 1018.3 1018.0 0.0
18/06:30am 8.4 7.8 7.6 95 0.4 CALM 0 0 0 0 1018.2 - 0.0
18/06:00am 8.5 8.0 7.7 95 0.4 CALM 0 0 0 0 1018.1 1017.8 0.0
18/05:30am 8.6 8.1 7.8 95 0.4 CALM 0 0 0 0 1018.3 - 0.0
18/05:00am 8.5 7.9 7.6 94 0.4 CALM 0 0 0 0 1018.1 1017.8 0.0
18/04:30am 8.6 8.1 7.7 94 0.4 CALM 0 0 0 0 1018.3 - 0.0
18/04:00am 8.8 8.3 7.7 93 0.5 CALM 0 0 0 0 1018.3 1018.0 0.0
18/03:30am 9.3 8.9 8.2 93 0.5 CALM 0 0 0 0 1018.4 - 0.0
18/03:00am 8.9 8.3 7.5 91 0.7 CALM 0 0 0 0 1018.5 1018.2 0.0
18/02:30am 9.0 8.5 7.8 92 0.6 CALM 0 0 0 0 1018.7 - 0.0
18/02:00am 9.8 9.5 8.6 92 0.6 CALM 0 0 0 0 1018.9 1018.6 0.0
18/01:30am 9.7 9.3 8.3 91 0.7 CALM 0 0 0 0 1019.1 - 0.0
18/01:00am 9.9 9.5 8.3 90 0.8 CALM 0 0 0 0 1019.2 1018.9 0.0
18/12:30am 10.8 10.7 9.4 91 0.7 CALM 0 0 0 0 1019.4 - 0.0
18/12:00am 10.0 7.6 8.6 91 0.7 ESE 11 11 6 6 1019.6 1019.3 0.0
 
Date/Time
EST
Temp
°C
App
Temp
°C
Dew
Point
Rel
Hum
%
Delta-T
°C
Wind Press
QNH
hPa
Press
MSL
hPa
Rain
since 9 am
mm
Dir
 
Spd
km/h
Gust
km/h
Spd
kts
Gust
kts
17/11:30pm 11.1 11.0 9.4 89 0.9 CALM 0 0 0 0 1019.9 - 0.0
17/11:00pm 11.3 11.1 9.2 87 1.1 CALM 0 0 0 0 1020.3 1020.0 0.0
17/10:30pm 11.8 11.8 9.9 88 1.0 CALM 0 0 0 0 1020.6 - 0.0
17/10:00pm 11.3 11.2 9.4 88 1.0 CALM 0 0 0 0 1020.7 1020.4 0.0
17/09:30pm 11.8 11.7 9.4 85 1.2 CALM 0 0 0 0 1020.7 - 0.0
17/09:00pm 12.1 12.0 9.5 84 1.3 CALM 0 0 0 0 1020.6 1020.3 0.0
17/08:30pm 12.6 12.5 9.4 81 1.6 CALM 0 0 0 0 1020.5 - 0.0
17/08:00pm 13.5 13.4 9.6 77 2.0 CALM 0 0 0 0 1020.5 1020.2 0.0
17/07:30pm 14.5 14.5 9.9 74 2.4 CALM 0 0 0 0 1020.2 - 0.0
17/07:00pm 15.3 15.2 9.4 68 3.1 CALM 0 0 0 0 1020.0 1019.7 0.0

Other Formats:

Comma delimited format used in spreadsheet applications
http://www.bom.gov.au/fwo/IDN60801/IDN60801.95706.axf

JavaScript Object Notation format (JSON) in row-major order
http://www.bom.gov.au/fwo/IDN60801/IDN60801.95706.json